Lid_Strength_Index
17 16 15 15 15 15 15 14 14 13 13 12 12 11 11 11 10 10 10 9 9 9 8 8 8 8 7 8 7 6 7 7 9 13 13 15 16 15 15 16 15 15 14
17 17 16 16 15 15 15 14 13 13 12 12 13 12 12 12 11 11 10 10 10 10 9 9 9 9 9 8 8 9 8 7 7 12 14 15 15 16 16 16 17 15 16
17 17 16 16 16 16 15 15 14 13 13 13 12 12 13 12 12 12 11 10 10 10 10 10 9 9 9 9 9 9 8 10 9 10 14 15 16 16 17 17 17 18 17
17 18 18 17 16 16 15 15 15 13 13 13 13 12 12 12 12 12 12 11 11 10 10 10 11 10 10 10 9 9 10 10 10 12 14 16 17 17 17 18 19 19 19
18 18 18 17 16 16 15 15 14 14 13 13 13 13 12 12 12 12 13 12 12 11 11 11 12 12 10 9 10 10 10 10 11 13 15 16 18 19 19 18 19 20 20
18 18 17 17 16 16 16 16 15 14 14 13 13 13 13 12 12 12 13 14 14 13 12 12 12 13 13 11 10 9 10 11 11 13 14 16 17 18 19 19 20 20 20
17 17 16 16 16 16 16 16 16 16 15 15 15 13 13 12 13 14 14 14 14 15 14 13 13 13 13 14 13 12 13 11 11 13 14 16 17 17 18 19 20 20 20
16 16 15 15 16 15 16 16 16 15 15 15 15 15 14 14 13 13 14 14 15 15 15 14 14 14 13 14 13 13 13 13 14 14 14 15 16 16 16 17 18 20 21
16 16 16 16 16 16 16 16 15 15 15 15 15 16 16 15 13 14 15 14 15 14 14 13 14 14 14 14 14 15 14 14 12 11 12 12 13 14 15 16 18 18 19
16 16 15 16 16 17 16 16 16 16 16 16 16 16 16 16 14 14 15 15 16 16 14 14 13 13 14 14 15 15 16 16 16 16 17 16 15 16 16 16 16 15 16
15 15 16 16 17 17 16 16 17 17 17 17 17 16 16 16 16 14 14 16 16 16 15 16 15 14 13 14 14 15 15 15 16 16 16 17 17 17 17 18 18 17 17
15 16 17 17 17 17 18 17 18 18 18 17 17 17 16 16 16 15 14 14 14 16 16 17 17 16 15 14 14 15 16 16 15 15 16 16 17 17 17 17 17 18 18
17 17 18 18 17 17 18 18 18 18 18 17 17 17 16 16 16 15 15 14 14 15 15 15 15 14 15 15 15 14 17 16 16 17 17 17 18 18 19 20 20 21 21
17 17 18 19 18 19 18 17 17 17 17 17 17 17 16 16 16 17 17 16 15 15 15 15 15 15 14 14 18 16 16 16 17 17 17 17 17 19 20 19 19 19 20
18 17 17 17 18 18 18 18 18 17 16 16 15 15 16 16 15 15 15 15 15 16 17 17 17 18 18 17 17 17 17 17 18 18 18 18 18 19 19 19 20 21 21
18 18 17 17 17 18 18 17 15 15 15 15 14 15 16 15 15 15 14 14 13 13 15 17 17 17 17 17 17 18 18 20 19 19 19 19 20 20 20 20 21 22 22
20 19 17 17 17 17 17 18 18 16 15 15 15 15 14 14 14 13 13 13 13 13 15 15 15 15 16 17 17 18 18 18 19 19 20 20 20 21 22 22 21 21 21
21 20 19 18 16 16 17 17 18 18 19 19 17 18 18 17 17 17 17 16 17 17 16 16 16 16 16 17 18 19 19 19 19 19 19 20 21 21 21 21 21 21 21
21 20 19 19 19 19 19 19 19 19 19 20 20 20 20 20 19 19 18 20 20 20 20 20 20 19 19 19 19 19 19 20 20 21 20 20 19 20 21 21 21 21 21
19 20 20 21 20 20 21 21 21 20 20 20 21 21 20 22 22 21 21 21 21 21 21 21 21 21 20 20 20 20 20 20 20 20 20 20 20 20 21 20 20 20 21
19 19 20 21 21 21 21 22 22 22 22 22 22 21 21 22 21 21 22 22 21 22 21 21 21 21 21 20 21 21 21 21 21 21 21 21 21 21 21 21 22 23 22
19 20 20 21 22 22 23 23 23 23 23 23 23 22 21 22 22 22 22 21 21 21 21 21 21 20 20 20 21 21 21 21 21 21 22 22 21 21 21 21 23 23 23
19 20 21 21 21 22 22 23 23 23 23 23 23 23 23 23 23 22 22 22 22 22 21 22 22 22 22 23 23 23 24 24 25 25 26 26 26 25 26 25 26 25 25
21 21 22 22 23 23 24 24 24 24 24 24 24 24 24 24 24 24 23 23 23 23 23 23 23 24 24 24 24 24 25 25 25 26 27 26 27 26 25 26 26 26 25
22 22 23 24 24 24 24 25 25 25 25 25 25 25 25 24 24 24 24 24 24 24 24 24 24 25 26 27 27 27 27 25 27 26 27 26 24 24 24 23 23 23 23
23 24 24 24 25 26 26 26 26 26 26 26 26 26 26 26 25 25 25 26 26 27 27 27 27 27 27 26 26 25 25 22 23 24 23 21 20 20 20 20 22 22 22